Regional Weather Roundup
Issued by NWS Bismarck, ND

Home | Current Version | Previous Version | Text Only | Print | Product List | Glossary Off
Versions: 1 2 3 4 5 6 7 8 9 10 11 12 13 14 15 16 17 18 19 20 21 22 23 24 25 26 27 28 29 30 31 32 33 34 35 36 37 38 39 40 41 42 43 44 45 46 47 48 49 50

000
ASUS43 KBIS 260102
RWRBIS

NWR BROADCAST TEXT
NATIONAL WEATHER SERVICE BISMARCK ND
700 PM CST SAT FEB 25 2017

NOTE: "FAIR" INDICATES FEW OR NO CLOUDS BELOW 12,000 FEET WITH NO
SIGNIFICANT WEATHER AND/OR OBSTRUCTIONS TO VISIBILITY.


CITY           SKY/WX    TMP DP  RH WIND       PRES   REMARKS
WILLISTON      FAIR      17  13  84 N10       29.70S WCI   5
MINOT          LGT SNOW  18  14  84 N10       29.69F FOG     WCI   6
MINOT AFB      LGT SNOW  16  12  86 N9        29.69F FOG     WCI   4
BISMARCK       MOCLDY    19  17  92 SE6       29.70F WCI  11
DICKINSON      MOCLDY    20  17  88 SW7       29.62F WCI  11
GARRISON         N/A     23  20  88 S5        29.64F WCI  17
HETTINGER ARPT MOCLDY    25  22  88 W7        29.68F WCI  17
JAMESTOWN      FAIR      23  17  78 W7        29.72F WCI  15
CARRINGTON     MOCLDY    21  16  79 NE3       29.73F
HAZEN            N/A    N/A N/A N/A S13       29.67F
MANDAN         CLOUDY    19  18  93 SE8       29.69F WCI   9
STANLEY        LGT SNOW  14  14 100 N10       29.68S VSB 3/4 WCI   1
$$

CITY           SKY/WX    TMP DP  RH WIND       PRES   REMARKS
GRAND FORKS    FAIR      22  14  71 N7        29.75S WCI  13
GRAND FORKS AF MOCLDY    22  16  77 N7        29.75S WCI  14
DEVILS LAKE    CLOUDY    19  13  77 NW9       29.73F WCI   8
FARGO          CLOUDY    28  22  78 NW6       29.75F
CAVALIER         N/A     16   7  67 NW12      29.77S WCI   3
GRAFTON        FAIR      19  12  73 NW13      29.79S WCI   7
GWINNER        CLOUDY    30  27  86 NW5       29.75F
ROLLA          FLURRIES  12  10  92 N12       29.70S WCI  -2
$$

CITY           SKY/WX    TMP DP  RH WIND       PRES   REMARKS
ABERDEEN       LGT SNOW  28  22  78 N9        29.76S WCI  19
MOBRIDGE       FAIR      28  20  71 MISG      29.70F
BUFFALO          N/A     27  21  78 W17       29.61S WCI  14
RAPID CITY     FAIR      23  19  85 N6        29.69F WCI  16
GLASGOW        FAIR      22  16  78 NE8       29.66F WCI  12
SIDNEY         FLURRIES  23  19  85 N13       29.69S WCI  11
WOLF POINT     FAIR      20  14  77 NE7       29.71S WCI  11
GLENDIVE       FLURRIES  29  18  63 W17       29.67R WCI  17
MILES CITY     FAIR      28  17  63 NW6       29.68F
BAKER          MOCLDY    23  20  88 VRB5      29.66F WCI  17
$$

CITY           SKY/WX    TMP DP  RH WIND       PRES   REMARKS
BILLINGS       FAIR      28  13  53 W21G30    29.68F WCI  15
GREAT FALLS    FAIR      28   5  37 W24G32    29.65S WCI  14
ESTEVAN        MOCLDY    12   9  85 NW7       29.70F WCI   2
$$




USA.gov is the U.S. government's official web portal to all federal, state and local government web resources and services.